This is the latest recevied weather packets stored in our database for station/object KE5VBO-1. If no packets are shown the sender has not sent any weather packets the latest 10 day(s).
| Time | Temp. | Humidity | Pressure | Rain* | Wind** | Luminosity | Snow |
|---|---|---|---|---|---|---|---|
| 1777563928 | 17.22° C | 1% | 1015 hPa | 0 mm | - | - | - |
| 1777563068 | 17.22° C | 1% | 1015 hPa | 0 mm | - | - | - |
| 1777562136 | 17.22° C | 1% | 1014.8 hPa | 0 mm | - | - | - |
| 1777561213 | 16.67° C | 1% | 1014.2 hPa | 0 mm | - | - | - |
| 1777560347 | 16.11° C | 1% | 1013.7 hPa | 0 mm | - | - | - |
| 1777559413 | 16.11° C | 1% | 1013.6 hPa | 0 mm | - | - | - |
| 1777558547 | 15.56° C | 1% | 1013.7 hPa | 0 mm | - | - | - |
| 1777557616 | 15.56° C | 1% | 1013.5 hPa | 0 mm | - | - | - |
| 1777556749 | 15° C | 1% | 1013.6 hPa | 0 mm | - | - | - |
| 1777555823 | 14.44° C | 1% | 1013.5 hPa | 0 mm | - | - | - |
| 1777554963 | 14.44° C | 1% | 1013.5 hPa | 0 mm | - | - | - |
| 1777554028 | 13.89° C | 1% | 1013.6 hPa | 0 mm | - | - | - |
| 1777553169 | 13.33° C | 1% | 1013.7 hPa | 0 mm | - | - | - |
| 1777552222 | 13.33° C | 1% | 1013.7 hPa | 0 mm | - | - | - |
| 1777551359 | 12.78° C | 1% | 1013.4 hPa | 0 mm | - | - | - |
| 1777550420 | 12.78° C | 1% | 1013.2 hPa | 0 mm | - | - | - |
| 1777549554 | 12.78° C | 1% | 1013.3 hPa | 0 mm | - | - | - |
| 1777548639 | 12.78° C | 1% | 1013 hPa | 0 mm | - | - | - |
| 1777547702 | 12.78° C | 1% | 1013.2 hPa | 0 mm | - | - | - |
| 1777546840 | 13.33° C | 1% | 1013.1 hPa | 0 mm | - | - | - |
| 1777545973 | 13.33° C | 1% | 1013.1 hPa | 0 mm | - | - | - |
| 1777545043 | 13.33° C | 1% | 1013.2 hPa | 0 mm | - | - | - |
| 1777543270 | 13.33° C | 1% | 1013.5 hPa | 0 mm | - | - | - |
| 1777542348 | 13.89° C | 1% | 1013.5 hPa | 0 mm | - | - | - |
| 1777541472 | 13.89° C | 1% | 1013.2 hPa | 0 mm | - | - | - |
* Rain latest hour (hover to see other rain measurements)
** Current wind speed in m/s (hover to see current wind gust speed)